星链-30086 (STARLINK-30086 )

导读 | 星芒AI

STARLINK-30086 是 SpaceX 星链计划中的一颗低轨通信卫星,属于第三代星链卫星(Starlink V1.5 或 V2)。它于2023年发射,部署在约550公里高度的近地轨道,旨在为全球用户提供高速互联网服务。该卫星采用先进推进系统和激光通信技术,提升网络稳定性和数据传输效率。作为星链星座的一部分,STARLINK-30086 支持偏远地区网络覆盖,助力实现全球宽带接入目标。

基本信息
目录编号:
56297
目录名称:
STARLINK-30086
国际标识:
2023-056M
轨道中心:
EARTH
卫星名称:
星链-30086
卫星全名:
星链-30086 (STARLINK-30086 )
卫星状态:
在轨 (已飞行925 天)
发射日期:
2023-04-19 UTC
国别 :
美国 (US)
星等 :
--
轨道信息
数据来源 国际轨道数据
星历时间: 2025-10-30T08:03:30+0800
15小时前
查看轨道信息
半长轴: 6937.159km
偏心率: 0.0001229
轨道倾角: 43.003°
近地点辐角 273.431°
升交点赤经 200.451°
平近点角 86.639°
近地点: 558.171km
远地点: 559.877km
周期: 95.837分钟
每日圈数: 15.025549
详细信息
固有亮度:
5
最大亮度:
0.3
卫星平台:
Starlink v2.0 mini
覆盖范围:
全球
运营商:
太空探索技术公司
运营商所在国:
美国
制造商(研发单位):
太空探索技术公司
制造商所在国:
美国
使用方式:
暂无
卫星简介
星链(Starlink)计划是由太空探索技术公司(SpaceX)提出的一个巨型低轨卫星互联网星座项目,计划在2019年至2024年间在太空搭建由约1.2万颗卫星组成的“星链”网络,其中1584颗将部署在地球上空550千米处的近地轨道,并从2020年开始工作。该卫星仍在工作。
2D轨道图
3D轨道图
轨道高度分析图
轨道倾角分析图
轨道综合分析图
查看轨道综合分析图